CZ-6A DEB, 61423

Orbit data source: Space-Track

CZ-6A DEB, 61423 is space debris in LEO originally from a launch on Tue, 06 Aug 2024 UTC launched from the Taiyaun Space Center, China (TSC). Debris objects in space refer to the collection of defunct objects orbiting the Earth. Examples of debris include non-operational satellites, rocket bodies, and fragments generated from explosions, collisions, or faulty payload assembly.

Loading next visibility...
Identifier
61423, 2024-140YQ
Orbit
LEO
Country
Flag of CNCN / PRC
Related business
Manufacturer
SAST
Mission
Spacecraft
Bus & Motor
Unknown
Mass
Unknown
Launch date (UTC)
2024-08-06 (1 year ago)
Launch vehicle
Unknown
Launch site
Taiyaun Space Center, China (TSC)
Object type
Payload
Rocket body
Debris
Shape & HBR
Unknown shape, 0.1 m
Radar Cross Section
Small (<0.1 m²)

Expand to show TLE details & history
Last TLE update: 2 days ago

TLE from 2 days ago
0 CZ-6A DEB
1 61423U 24140YQ  25312.22802051  .00005142  00000-0  11396-2 0  9994
2 61423  88.8233 287.1677 0130683 342.4627  17.2087 14.51819254 64248
Epoch: 2025-11-08T05:28Z
TLE epoch observation values (Epoch: 2025-11-08T05:28:20.972Z)
Latitude
-0.00007°
Longitude
157.41967°
Altitude
634.296 km
Speed
7.588 km/s
True Right ascension
19h 08m 40s
True Declination
0° 00' 00"
Sunlit
Object was in daylight at epoch
Visualization orbit readout
Latitude
Unknown
Longitude
Unknown
Altitude
Unknown
Speed
Unknown
Apparent Right ascension
Unknown
Apparent Declination
Unknown
Sunlit
N/A
Visualization observer readout
Local Sidereal Time
20:05:15
Azimuth
Unknown
Elevation
Unknown
Doppler factor
Unknown
Orbital elements
Apogee altitude
809.335 km
Perigee altitude
623.902 km
Semi-major axis
7,094.756 km
Eccentricity
0.01307
Inclination
88.8233°
RAAN
287.1677°
Arg. of periapsis
342.4627°
True anomaly
17.65876°
Mean anomaly
17.2087°
Eccentric anomaly
17.43302°
Mean motion
3.63193 °/min
Orbital period
99.12 mins
BSTAR
0.0011396
Loading maneuver chart data...
Computing Atmospheric mass density...

Documentation

Showing up to 5 results
|